This is the latest recevied weather packets stored in our database for station/object JH7UAX-10. If no packets are shown the sender has not sent any weather packets the latest 10 day(s).
| Time | Temp. | Humidity | Pressure | Rain* | Wind** | Luminosity | Snow |
|---|---|---|---|---|---|---|---|
| 1787789655 | 24.44° C | 85% | 1019.8 hPa | 0 mm | - | - | - |
| 1787788755 | 24.44° C | 87% | 1020 hPa | 0 mm | - | - | - |
| 1787787854 | 23.89° C | 90% | 1020.2 hPa | 0 mm | - | - | - |
| 1787786956 | 23.33° C | 91% | 1020.3 hPa | 0 mm | - | - | - |
| 1787785156 | 22.22° C | 93% | 1020.3 hPa | 0 mm | - | - | - |
| 1787784258 | 21.67° C | 94% | 1020.4 hPa | 0 mm | - | - | - |
| 1787783356 | 21.67° C | 94% | 1020.5 hPa | 0 mm | - | - | - |
| 1787782456 | 21.11° C | 95% | 1020.4 hPa | 0 mm | - | - | - |
| 1787781555 | 21.11° C | 95% | 1020.4 hPa | 0 mm | - | - | - |
| 1787779754 | 20.56° C | 96% | 1020.3 hPa | 0 mm | - | - | - |
| 1787778854 | 20.56° C | 95% | 1020.4 hPa | 0 mm | - | - | - |
| 1787777955 | 20° C | 96% | 1020.4 hPa | 0 mm | - | - | - |
| 1787776158 | 20° C | 95% | 1021 hPa | 0 mm | - | - | - |
| 1787775257 | 20° C | 94% | 1020.9 hPa | 0 mm | - | - | - |
| 1787774354 | 20° C | 94% | 1020.7 hPa | 0 mm | - | - | - |
| 1787772554 | 20° C | 94% | 1020.8 hPa | 0 mm | - | - | - |
| 1787771656 | 20° C | 93% | 1021 hPa | 0 mm | - | - | - |
| 1787770755 | 20.56° C | 93% | 1020.9 hPa | 0 mm | - | - | - |
| 1787768956 | 20.56° C | 92% | 1021.1 hPa | 0 mm | - | - | - |
| 1787768056 | 20.56° C | 91% | 1021.2 hPa | 0 mm | - | - | - |
| 1787764454 | 21.11° C | 92% | 1020.6 hPa | 0 mm | - | - | - |
| 1787763558 | 21.11° C | 92% | 1020.9 hPa | 0 mm | - | - | - |
| 1787762655 | 21.11° C | 92% | 1021 hPa | 0 mm | - | - | - |
| 1787761757 | 21.11° C | 92% | 1021.1 hPa | 0 mm | - | - | - |
| 1787760855 | 21.67° C | 92% | 1021 hPa | 0 mm | - | - | - |
* Rain latest hour (hover to see other rain measurements)
** Current wind speed in m/s (hover to see current wind gust speed)